1491523200.55,54611,11.5,72702.5,-11.89,-12.75,-12.75,0,*66
1491523201.85,54612,11.5,72696.8,-11.89,-12.75,-12.75,0,*65
1491523203.13,54613,11.5,72690.0,-11.87,-12.75,-12.79,0,*66
1491523204.42,54614,11.5,72694.3,-11.89,-12.75,-12.79,0,*6F
1491523205.7,54615,11.5,72698.0,-11.87,-12.75,-12.75,0,*6C
1491523207.0,54616,11.5,72704.8,-11.89,-12.75,-12.75,0,*61
1491523208.25,54617,11.5,72698.8,-11.87,-12.89,-12.79,0,*61
1491523209.52,54618,11.5,72686.8,-11.89,-12.93,-13.01,0,*65
1491523210.78,54619,11.5,72678.8,-11.89,-12.79,-12.89,0,*61
1491523212.01,54620,11.5,72686.0,-11.87,-12.89,-12.89,0,*6A
1491523213.23,54621,11.5,72668.0,-11.87,-12.89,-12.89,0,*6B
1491523214.5,54622,11.5,72690.8,-11.87,-12.79,-12.79,0,*68
1491523215.75,54623,11.5,72690.8,-11.87,-12.79,-12.89,0,*66
1491523216.98,54624,11.5,72692.0,-11.87,-12.89,-12.89,0,*6E
1491523218.22,54625,11.5,72694.8,-11.87,-12.93,-13.01,0,*65
1491523219.45,54626,11.5,72698.5,-11.87,-12.93,-12.93,0,*6C
1491523220.69,54627,11.44,72696.0,-11.87,-12.79,-12.89,0,*62
1491523221.94,54628,11.5,72700.0,-11.87,-13.01,-12.89,0,*63
1491523223.17,54629,11.5,72700.8,-11.87,-12.93,-12.93,0,*63
1491523224.42,54630,11.5,72702.0,-11.87,-13.01,-12.93,0,*61
1491523225.65,54631,11.5,72698.3,-11.87,-12.93,-12.93,0,*6A
1491523226.87,54632,11.5,72700.3,-11.87,-12.89,-12.89,0,*69
1491523228.12,54633,11.5,72698.0,-11.89,-12.93,-12.93,0,*66
1491523229.35,54634,11.5,72692.8,-11.89,-13.15,-13.15,0,*61
1491523230.59,54635,11.5,72690.3,-11.89,-13.15,-13.19,0,*6C
1491523231.85,54636,11.5,72688.8,-11.89,-13.33,-13.43,0,*64
1491523233.14,54637,11.5,72692.5,-11.89,-13.33,-13.29,0,*69
1491523234.39,54638,11.5,72692.0,-11.89,-13.19,-13.19,0,*6D
1491523235.61,54639,11.5,72690.0,-11.87,-13.07,-13.15,0,*61
1491523236.87,54640,11.5,72694.8,-11.89,-13.07,-13.01,0,*64
1491523238.12,54641,11.5,72692.8,-11.87,-13.07,-13.01,0,*6B
1491523239.36,54642,11.5,72694.5,-11.89,-13.07,-12.93,0,*6C
1491523240.59,54643,11.5,72692.5,-11.89,-13.15,-13.15,0,*61
1491523241.82,54644,11.5,72690.8,-11.91,-13.19,-13.19,0,*6F
1491523243.04,54645,11.5,72688.0,-11.87,-13.07,-13.15,0,*6A
1491523244.26,54646,11.5,72688.3,-11.95,-12.97,-12.97,0,*69
1491523245.48,54647,11.5,72684.0,-11.91,-12.93,-12.97,0,*68
1491523246.75,54648,11.5,72688.8,-11.91,-12.83,-12.83,0,*63
1491523248.04,54649,11.5,72684.0,-11.89,-12.79,-12.79,0,*6B
1491523249.31,54650,11.5,72684.5,-11.91,-12.83,-12.83,0,*6A
1491523250.6,54651,11.5,72682.5,-11.89,-12.79,-12.79,0,*62
1491523251.87,54652,11.5,72684.8,-11.91,-12.83,-12.79,0,*6D
1491523253.14,54653,11.5,72684.3,-11.91,-12.83,-12.79,0,*6C
1491523254.41,54654,11.5,72678.0,-11.91,-12.83,-12.79,0,*6B
1491523255.67,54655,11.5,72680.5,-11.91,-12.83,-12.83,0,*6F
1491523256.97,54656,11.5,72676.5,-11.89,-12.79,-12.75,0,*69
1491523258.27,54657,11.5,72682.8,-11.89,-12.75,-12.75,0,*64
1491523259.52,54658,11.5,72682.8,-11.95,-12.93,-12.79,0,*62
1491523260.78,54659,11.5,72680.8,-11.91,-12.83,-12.79,0,*66
1491523262.03,54660,11.5,72678.5,-11.89,-12.89,-12.89,0,*60
1491523263.32,54661,11.5,72682.0,-11.89,-12.79,-12.79,0,*61
1491523264.62,54662,11.5,72680.8,-11.89,-12.79,-12.79,0,*62
1491523265.91,54663,11.5,72680.3,-11.89,-12.79,-12.79,0,*63
1491523267.21,54664,11.5,72678.5,-11.89,-12.79,-12.75,0,*68
1491523268.49,54665,11.5,72678.3,-11.87,-12.75,-12.75,0,*6B
1491523269.76,54666,11.5,72676.3,-11.87,-12.71,-12.75,0,*6C
1491523271.04,54667,11.5,72676.0,-11.87,-12.75,-12.79,0,*65
1491523272.34,54668,11.5,72680.0,-11.89,-12.71,-12.71,0,*68
1491523273.64,54669,11.5,72678.0,-11.89,-12.71,-12.75,0,*6D
1491523274.93,54670,11.5,72668.5,-11.89,-12.71,-12.75,0,*65
1491523276.23,54671,11.5,72666.8,-11.89,-12.75,-12.75,0,*60
1491523277.51,54672,11.5,72660.8,-11.87,-12.71,-12.75,0,*69
1491523278.8,54673,11.5,72668.0,-11.89,-12.75,-12.75,0,*62
1491523280.1,54674,11.5,72658.0,-11.89,-12.75,-12.71,0,*61
1491523281.4,54675,11.5,72658.5,-11.89,-12.71,-12.75,0,*60
1491523282.68,54676,11.5,72664.3,-11.87,-12.75,-12.75,0,*69
1491523283.98,54677,11.44,72656.8,-11.89,-12.71,-12.75,0,*62
1491523285.27,54678,11.5,72648.8,-11.89,-12.75,-12.75,0,*69
1491523286.55,54679,11.5,72654.0,-11.87,-12.75,-12.79,0,*6A
1491523287.85,54680,11.5,72666.0,-11.89,-12.75,-12.79,0,*62
1491523289.15,54681,11.5,72670.8,-11.89,-12.75,-12.79,0,*63
1491523290.44,54682,11.5,72658.8,-11.89,-12.79,-12.79,0,*6C
1491523291.72,54683,11.5,72666.3,-11.87,-12.79,-12.79,0,*63
1491523292.97,54684,11.5,72668.3,-11.87,-12.89,-12.79,0,*6B
1491523294.24,54685,11.5,72664.3,-11.87,-12.79,-12.79,0,*65
1491523295.51,54686,11.5,72652.0,-11.89,-12.79,-12.89,0,*67
1491523296.81,54687,11.5,72648.5,-11.89,-12.79,-12.79,0,*69
1491523298.08,54688,11.44,72644.3,-11.87,-12.79,-12.79,0,*68
1491523299.35,54689,11.5,72640.8,-11.87,-12.79,-12.79,0,*69
1491523300.6,54690,11.5,72646.8,-11.89,-12.89,-12.89,0,*6F
1491523301.87,54691,11.5,72650.5,-11.87,-12.79,-12.79,0,*60
1491523303.17,54692,11.5,72648.0,-11.89,-12.79,-12.79,0,*6D
1491523304.46,54693,11.5,72644.3,-11.89,-12.79,-12.79,0,*6C
1491523305.76,54694,11.5,72644.0,-11.89,-12.79,-12.79,0,*6B
1491523307.01,54695,11.5,72654.5,-11.87,-12.79,-12.89,0,*6B
1491523308.31,54696,11.5,72658.3,-11.89,-12.71,-12.71,0,*69
1491523309.6,54697,11.5,72646.3,-11.89,-12.71,-12.75,0,*6C
1491523310.9,54698,11.5,72646.5,-11.89,-12.75,-12.75,0,*67
1491523312.2,54699,11.44,72630.3,-11.89,-12.75,-12.75,0,*66
1491523313.45,54700,11.5,72652.5,-11.87,-12.79,-12.89,0,*66
1491523314.72,54701,11.5,72662.0,-11.87,-12.79,-12.79,0,*68
1491523316.0,54702,11.5,72660.0,-11.87,-12.79,-12.79,0,*6B
1491523317.24,54703,11.5,72664.3,-11.89,-12.89,-12.93,0,*6F
1491523318.51,54704,11.5,72656.3,-11.89,-12.79,-12.89,0,*6C
1491523319.73,54705,11.5,72652.3,-11.87,-12.89,-12.89,0,*6C
1491523321.01,54706,11.5,72654.5,-11.87,-12.79,-12.79,0,*6F
1491523322.27,54707,11.5,72658.0,-11.89,-12.79,-12.89,0,*6F
1491523323.52,54708,11.5,72672.5,-11.89,-12.93,-12.89,0,*64
1491523324.76,54709,11.5,72666.8,-11.89,-12.89,-12.89,0,*6E
1491523326.03,54710,11.5,72650.3,-11.89,-12.79,-12.89,0,*69
1491523327.3,54711,11.5,72658.0,-11.89,-12.79,-12.89,0,*68
1491523328.6,54712,11.5,72644.0,-11.89,-12.75,-12.75,0,*64
1491523329.9,54713,11.5,72646.3,-11.89,-12.75,-12.75,0,*65
1491523331.19,54714,11.44,72648.8,-11.89,-12.71,-12.75,0,*66
1491523332.49,54715,11.5,72652.5,-11.89,-12.79,-12.79,0,*63
1491523333.78,54716,11.5,72656.3,-11.89,-12.79,-12.79,0,*60
1491523335.08,54717,11.5,72664.0,-11.89,-12.79,-12.79,0,*61
1491523336.35,54718,11.5,72658.5,-11.87,-12.79,-12.79,0,*60
1491523337.65,54719,11.5,72680.8,-11.89,-12.75,-12.75,0,*6F
1491523338.93,54720,11.5,72690.0,-11.87,-12.71,-12.71,0,*6B
1491523340.23,54721,11.5,72680.3,-11.89,-12.75,-12.75,0,*64
1491523341.5,54722,11.44,72696.3,-11.87,-12.79,-12.75,0,*65
1491523342.77,54723,11.5,72694.0,-11.89,-12.89,-12.79,0,*69
1491523344.07,54724,11.5,72676.0,-11.89,-12.79,-12.79,0,*61
1491523345.32,54725,11.5,72658.8,-11.87,-12.89,-12.79,0,*61
1491523346.59,54726,11.5,72634.3,-11.87,-12.79,-12.79,0,*6D
1491523347.87,54727,11.5,72648.8,-11.87,-12.79,-12.79,0,*6C
1491523349.16,54728,11.5,72670.8,-11.89,-12.79,-12.79,0,*6D
1491523350.46,54729,11.5,72678.3,-11.89,-12.79,-12.79,0,*6C
1491523351.75,54730,11.5,72678.0,-11.89,-12.79,-12.79,0,*64
1491523353.05,54731,11.5,72680.8,-11.89,-12.79,-12.79,0,*65
1491523354.29,54732,11.5,72670.8,-11.89,-12.89,-12.89,0,*66
1491523355.52,54733,11.44,72660.3,-11.87,-12.93,-12.89,0,*62
1491523356.81,54734,11.5,72674.0,-11.89,-12.79,-12.79,0,*60
1491523358.11,54735,11.5,72670.0,-11.89,-12.79,-12.79,0,*61
1491523359.38,54736,11.5,72674.8,-11.87,-12.79,-12.79,0,*6C
1491523360.68,54737,11.5,72690.0,-11.89,-12.71,-12.75,0,*67
1491523361.98,54738,11.5,72690.8,-11.89,-12.75,-12.71,0,*68
1491523363.28,54739,11.5,72688.8,-11.89,-12.75,-12.75,0,*6D
1491523364.56,54740,11.5,72694.5,-11.87,-12.75,-12.71,0,*69
1491523365.85,54741,11.5,72682.8,-11.89,-12.71,-12.75,0,*66
1491523367.14,54742,11.5,72686.0,-11.87,-12.75,-12.71,0,*6B
1491523368.41,54743,11.5,72682.0,-11.87,-12.79,-12.79,0,*6E
1491523369.69,54744,11.5,72694.5,-11.87,-12.79,-12.79,0,*69
1491523370.99,54745,11.5,72696.3,-11.89,-12.75,-12.71,0,*62
1491523372.27,54746,11.5,72680.5,-11.87,-12.75,-12.75,0,*6B
1491523373.56,54747,11.5,72682.8,-11.89,-12.75,-12.75,0,*64
1491523374.84,54748,11.5,72682.8,-11.87,-12.75,-12.75,0,*65
1491523376.12,54749,11.5,72680.5,-11.87,-12.75,-12.75,0,*64
1491523377.4,54750,11.5,72676.8,-11.87,-12.71,-12.71,0,*6C
1491523378.69,54751,11.5,72674.3,-11.89,-12.61,-12.61,0,*63
1491523379.97,54752,11.5,72678.8,-11.87,-12.71,-12.71,0,*6E
1491523381.23,54753,11.5,72666.5,-11.87,-12.61,-12.61,0,*6F
1491523382.5,54754,11.5,72652.3,-11.87,-12.61,-12.61,0,*68
1491523383.77,54755,11.44,72658.0,-11.87,-12.61,-12.61,0,*69
1491523385.05,54756,11.5,72668.3,-11.87,-12.75,-12.75,0,*6A
1491523386.33,54757,11.5,72662.8,-11.87,-12.75,-12.75,0,*6B
1491523387.61,54758,11.5,72682.8,-11.87,-12.71,-12.71,0,*64
1491523388.88,54759,11.5,72668.5,-11.87,-12.71,-12.61,0,*64
1491523390.16,54760,11.5,72674.8,-11.87,-12.75,-12.75,0,*6F
1491523391.43,54761,11.5,72670.3,-11.87,-12.71,-12.75,0,*6A
1491523392.71,54762,11.5,72670.5,-11.87,-12.71,-12.71,0,*6D
1491523393.98,54763,11.5,72674.8,-11.87,-12.61,-12.57,0,*69
1491523395.25,54764,11.5,72666.3,-11.87,-12.61,-12.61,0,*6B
1491523396.54,54765,11.44,72672.5,-11.85,-12.57,-12.65,0,*69
1491523397.83,54766,11.5,72674.3,-11.85,-12.65,-12.65,0,*6B
1491523399.11,54767,11.5,72678.8,-11.85,-12.65,-12.65,0,*6A
1491523400.4,54768,11.5,72682.3,-11.85,-12.65,-12.65,0,*65
1491523401.69,54769,11.5,72672.5,-11.85,-12.71,-12.65,0,*61
1491523402.98,54770,11.5,72664.8,-11.85,-12.65,-12.53,0,*69
1491523404.28,54771,11.5,72668.0,-11.85,-12.57,-12.57,0,*6D
1491523405.58,54772,11.5,72664.8,-11.85,-12.65,-12.71,0,*6B
1491523406.87,54773,11.5,72664.8,-11.85,-12.65,-12.71,0,*6A
1491523408.17,54774,11.5,72676.5,-11.85,-12.65,-12.71,0,*6D
1491523409.46,54775,11.5,72670.3,-11.85,-12.57,-12.65,0,*68
1491523410.75,54776,11.5,72672.3,-11.85,-12.71,-12.65,0,*6F
1491523412.04,54777,11.5,72674.8,-11.85,-12.65,-12.65,0,*6B
1491523413.3,54778,11.5,72678.5,-11.83,-12.57,-12.57,0,*62
1491523414.6,54779,11.5,72680.5,-11.85,-12.57,-12.57,0,*65
1491523415.89,54780,11.5,72682.8,-11.85,-12.57,-12.57,0,*63
1491523417.16,54781,11.5,72674.5,-11.83,-12.71,-12.71,0,*64
1491523418.44,54782,11.5,72696.3,-11.83,-12.71,-12.71,0,*67
1491523419.72,54783,11.5,72690.5,-11.83,-12.65,-12.71,0,*63
1491523420.99,54784,11.5,72692.8,-11.83,-12.71,-12.71,0,*61
1491523422.29,54785,11.5,72698.3,-11.85,-12.65,-12.71,0,*63
1491523423.57,54786,11.5,72694.0,-11.83,-12.71,-12.71,0,*63
1491523424.86,54787,11.5,72688.3,-11.85,-12.65,-12.57,0,*65
1491523426.14,54788,11.5,72688.8,-11.85,-12.65,-12.65,0,*6B
1491523427.41,54789,11.5,72672.0,-11.83,-12.65,-12.57,0,*6D
1491523428.69,54790,11.5,72680.0,-11.83,-12.71,-12.71,0,*64
1491523429.96,54791,11.5,72684.8,-11.83,-12.65,-12.71,0,*60
1491523431.26,54792,11.5,72688.5,-11.85,-12.71,-12.71,0,*60
1491523432.53,54793,11.5,72690.5,-11.83,-12.71,-12.65,0,*62
1491523433.8,54794,11.5,72696.8,-11.83,-12.71,-12.75,0,*64
1491523435.07,54795,11.5,72710.5,-11.83,-12.71,-12.75,0,*65
1491523436.35,54796,11.5,72706.3,-11.83,-12.71,-12.75,0,*66
1491523437.62,54797,11.44,72710.8,-11.83,-12.71,-12.75,0,*67
1491523438.89,54798,11.5,72718.5,-11.83,-12.65,-12.71,0,*69
1491523440.17,54799,11.44,72716.0,-11.83,-12.65,-12.71,0,*68
1491523441.45,54800,11.44,72712.5,-11.83,-12.71,-12.71,0,*62
1491523442.73,54801,11.5,72708.8,-11.85,-12.83,-12.83,0,*65
1491523443.95,54802,11.5,72692.3,-11.83,-12.89,-12.89,0,*60
1491523445.22,54803,11.5,72678.3,-11.83,-12.83,-12.83,0,*61
1491523446.49,54804,11.44,72666.8,-11.85,-12.89,-12.83,0,*6A
1491523447.76,54805,11.5,72660.5,-11.85,-12.89,-12.75,0,*62
1491523449.03,54806,11.5,72662.0,-11.83,-12.71,-12.75,0,*60
1491523450.3,54807,11.44,72648.8,-11.83,-12.83,-12.75,0,*6C
1491523451.57,54808,11.44,72660.3,-11.83,-12.75,-12.75,0,*6A
1491523452.85,54809,11.44,72668.5,-11.83,-12.75,-12.75,0,*6B
1491523454.12,54810,11.5,72670.8,-11.83,-12.83,-12.75,0,*6A
1491523455.39,54811,11.44,72664.0,-11.85,-12.89,-12.75,0,*67
1491523456.65,54812,11.44,72676.3,-11.83,-12.83,-12.83,0,*61
1491523457.92,54813,11.5,72690.5,-11.83,-12.83,-12.83,0,*60
1491523459.21,54814,11.5,72688.5,-11.85,-12.83,-12.83,0,*61
1491523460.47,54815,11.5,72674.5,-11.83,-12.83,-12.83,0,*66
1491523461.75,54816,11.44,72666.5,-11.83,-12.75,-12.75,0,*65
1491523463.02,54817,11.5,72674.8,-11.83,-12.75,-12.75,0,*64
1491523464.29,54818,11.5,72698.8,-11.85,-12.83,-12.89,0,*67
1491523465.59,54819,11.5,72706.5,-11.85,-12.75,-12.75,0,*6C
1491523466.83,54820,11.5,72716.8,-11.83,-12.89,-12.83,0,*6A
1491523468.08,54821,11.5,72694.0,-11.85,-12.97,-12.97,0,*67
1491523469.3,54822,11.5,72668.3,-11.83,-12.97,-12.89,0,*6D
1491523470.59,54823,11.5,72664.8,-11.85,-12.75,-12.83,0,*6C
1491523471.81,54824,11.5,72668.3,-11.83,-12.89,-12.89,0,*64
1491523473.06,54825,11.5,72668.5,-11.85,-12.89,-12.89,0,*63
1491523474.3,54826,11.5,72672.5,-11.83,-12.89,-12.83,0,*6C
1491523475.6,54827,11.5,72678.5,-11.85,-12.75,-12.75,0,*61
1491523476.89,54828,11.5,72670.3,-11.85,-12.83,-12.75,0,*67
1491523478.18,54829,11.5,72668.0,-11.85,-12.83,-12.75,0,*66
1491523479.48,54830,11.5,72652.5,-11.85,-12.75,-12.75,0,*67
1491523480.78,54831,11.5,72658.8,-11.85,-12.75,-12.75,0,*66
1491523482.08,54832,11.5,72648.3,-11.85,-12.75,-12.75,0,*65
1491523483.38,54833,11.5,72640.8,-11.85,-12.71,-12.75,0,*60
1491523484.67,54834,11.5,72642.3,-11.85,-12.83,-12.75,0,*6A
1491523485.97,54835,11.5,72644.0,-11.85,-12.75,-12.75,0,*62
1491523487.26,54836,11.5,72656.3,-11.85,-12.83,-12.83,0,*61
1491523488.55,54837,11.5,72660.5,-11.85,-12.75,-12.83,0,*69
1491523489.84,54838,11.44,72662.5,-11.85,-12.83,-12.83,0,*6F
1491523491.14,54839,11.5,72664.5,-11.85,-12.75,-12.75,0,*6E
1491523492.42,54840,11.5,72664.3,-11.83,-12.75,-12.71,0,*62
1491523493.69,54841,11.5,72668.0,-11.83,-12.75,-12.83,0,*6E
1491523494.97,54842,11.44,72664.5,-11.83,-12.75,-12.75,0,*64
1491523496.24,54843,11.5,72670.0,-11.83,-12.75,-12.75,0,*65
1491523497.54,54844,11.5,72674.0,-11.85,-12.75,-12.75,0,*64
1491523498.84,54845,11.5,72674.0,-11.85,-12.75,-12.75,0,*65
1491523500.1,54846,11.5,72674.5,-11.83,-12.71,-12.65,0,*65
1491523501.38,54847,11.5,72668.8,-11.83,-12.71,-12.71,0,*61
1491523502.66,54848,11.5,72664.8,-11.83,-12.71,-12.71,0,*6E
1491523503.96,54849,11.5,72670.0,-11.85,-12.71,-12.71,0,*69
1491523505.22,54850,11.5,72676.0,-11.83,-12.71,-12.65,0,*62
1491523506.49,54851,11.5,72686.0,-11.83,-12.71,-12.65,0,*63
1491523507.75,54852,11.5,72684.5,-11.83,-12.71,-12.65,0,*60
1491523509.03,54853,11.44,72678.0,-11.83,-12.65,-12.71,0,*61
1491523510.29,54854,11.5,72672.0,-11.83,-12.71,-12.65,0,*66
1491523511.59,54855,11.5,72668.3,-11.85,-12.71,-12.71,0,*64
1491523512.89,54856,11.44,72670.3,-11.85,-12.71,-12.71,0,*67
1491523514.19,54857,11.44,72668.0,-11.85,-12.71,-12.71,0,*66
1491523515.48,54858,11.5,72676.5,-11.81,-12.65,-12.61,0,*69
1491523516.75,54859,11.5,72678.0,-11.83,-12.57,-12.65,0,*6F
1491523518.02,54860,11.44,72668.5,-11.83,-12.71,-12.65,0,*61
1491523519.29,54861,11.44,72666.8,-11.83,-12.71,-12.71,0,*65
1491523520.58,54862,11.5,72672.8,-11.85,-12.65,-12.65,0,*60
1491523521.85,54863,11.5,72670.8,-11.83,-12.57,-12.71,0,*63
1491523523.13,54864,11.5,72676.3,-11.83,-12.65,-12.71,0,*65
1491523524.39,54865,11.5,72678.8,-11.83,-12.57,-12.65,0,*60
1491523525.67,54866,11.44,72674.3,-11.83,-12.71,-12.71,0,*62
1491523526.94,54867,11.5,72672.5,-11.83,-12.65,-12.71,0,*66
1491523528.21,54868,11.44,72686.3,-11.83,-12.65,-12.65,0,*6C
1491523529.5,54869,11.44,72680.0,-11.81,-12.65,-12.65,0,*6F
1491523530.77,54870,11.44,72666.0,-11.83,-12.71,-12.71,0,*65
1491523532.04,54871,11.44,72670.8,-11.83,-12.65,-12.65,0,*64
1491523533.31,54872,11.44,72656.3,-11.83,-12.71,-12.71,0,*67
1491523534.58,54873,11.44,72660.5,-11.83,-12.65,-12.65,0,*66
1491523535.85,54874,11.5,72668.8,-11.83,-12.71,-12.71,0,*61
1491523537.13,54875,11.44,72652.0,-11.83,-12.71,-12.71,0,*60
1491523538.43,54876,11.5,72650.5,-11.85,-12.71,-12.71,0,*65
1491523539.7,54877,11.44,72642.3,-11.83,-12.65,-12.71,0,*67
1491523540.98,54878,11.44,72658.8,-11.83,-12.71,-12.71,0,*6D
1491523542.27,54879,11.44,72658.8,-11.81,-12.71,-12.65,0,*6B
1491523543.57,54880,11.44,72658.3,-11.81,-12.79,-12.71,0,*60
1491523544.87,54881,11.44,72668.3,-11.81,-12.71,-12.71,0,*69
1491523546.17,54882,11.44,72668.0,-11.81,-12.53,-12.61,0,*6B
1491523547.46,54883,11.44,72654.5,-11.81,-12.65,-12.65,0,*6B
1491523548.73,54884,11.44,72662.3,-11.83,-12.65,-12.71,0,*6B
1491523550.04,54885,11.5,72666.0,-11.85,-12.71,-12.71,0,*69
1491523551.3,54886,11.44,72666.0,-11.83,-12.65,-12.65,0,*6C
1491523552.56,54887,11.44,72658.0,-11.83,-12.65,-12.65,0,*6D
1491523553.84,54888,11.44,72660.8,-11.83,-12.71,-12.71,0,*62
1491523555.13,54889,11.44,72666.0,-11.81,-12.65,-12.65,0,*61
1491523556.41,54890,11.44,72670.0,-11.83,-12.71,-12.71,0,*6B
1491523557.68,54891,11.44,72660.0,-11.83,-12.71,-12.71,0,*6A
1491523558.96,54892,11.44,72652.8,-11.83,-12.71,-12.71,0,*69
1491523560.23,54893,11.44,72658.5,-11.83,-12.71,-12.71,0,*68
1491523561.51,54894,11.5,72662.0,-11.83,-12.65,-12.71,0,*6A
1491523562.78,54895,11.44,72658.8,-11.83,-12.65,-12.71,0,*6B
1491523564.08,54896,11.44,72664.3,-11.81,-12.65,-12.61,0,*6B
1491523565.37,54897,11.44,72666.8,-11.81,-12.65,-12.65,0,*6E
1491523566.66,54898,11.44,72666.0,-11.81,-12.65,-12.65,0,*61
1491523567.95,54899,11.5,72670.3,-11.81,-12.61,-12.61,0,*60
1491523569.24,54900,11.5,72672.8,-11.81,-12.61,-12.61,0,*61
1491523570.53,54901,11.44,72672.5,-11.81,-12.61,-12.61,0,*60
1491523571.82,54902,11.5,72672.0,-11.81,-12.65,-12.61,0,*67
1491523573.09,54903,11.5,72664.8,-11.79,-12.65,-12.65,0,*65
1491523574.38,54904,11.44,72668.8,-11.81,-12.65,-12.65,0,*65
1491523575.67,54905,11.5,72672.3,-11.81,-12.65,-12.61,0,*60
1491523576.93,54906,11.44,72672.5,-11.79,-12.61,-12.61,0,*60
1491523578.22,54907,11.44,72660.3,-11.81,-12.61,-12.61,0,*66
1491523579.49,54908,11.5,72668.5,-11.79,-12.65,-12.65,0,*6E
1491523580.78,54909,11.44,72660.0,-11.81,-12.65,-12.65,0,*68
1491523582.04,54910,11.44,72660.0,-11.79,-12.65,-12.65,0,*67
1491523583.33,54911,11.5,72670.3,-11.81,-12.65,-12.65,0,*61
1491523584.6,54912,11.44,72662.5,-11.79,-12.65,-12.65,0,*65
1491523585.89,54913,11.5,72666.5,-11.81,-12.65,-12.65,0,*63
1491523587.18,54914,11.44,72666.0,-11.81,-12.65,-12.65,0,*64
1491523588.47,54915,11.5,72664.3,-11.81,-12.65,-12.65,0,*65
1491523589.77,54916,11.44,72672.5,-11.81,-12.65,-12.71,0,*63
1491523591.04,54917,11.44,72682.0,-11.79,-12.65,-12.71,0,*65
1491523592.33,54918,11.44,72676.8,-11.81,-12.61,-12.65,0,*6C
1491523593.62,54919,11.44,72670.5,-11.81,-12.65,-12.65,0,*69
1491523594.92,54920,11.5,72652.0,-11.81,-12.71,-12.79,0,*6B
1491523596.22,54921,11.44,72650.3,-11.81,-12.65,-12.71,0,*67
1491523597.49,54922,11.44,72650.0,-11.79,-12.65,-12.71,0,*63
1491523598.79,54923,11.44,72656.3,-11.81,-12.71,-12.71,0,*60
1491523600.1,54924,11.44,72648.5,-11.81,-12.79,-12.71,0,*6F
1491523601.39,54925,11.44,72636.8,-11.81,-12.83,-12.79,0,*63
1491523602.69,54926,11.44,72642.8,-11.81,-12.71,-12.71,0,*65
1491523603.97,54927,11.44,72646.5,-11.79,-12.71,-12.71,0,*63
1491523605.24,54928,11.5,72648.5,-11.79,-12.71,-12.71,0,*6C
1491523606.52,54929,11.44,72644.5,-11.79,-12.71,-12.71,0,*6D
1491523607.82,54930,11.44,72640.8,-11.81,-12.79,-12.79,0,*62
1491523609.07,54931,11.44,72650.0,-11.81,-12.93,-12.93,0,*63
1491523610.34,54932,11.44,72642.0,-11.79,-12.71,-12.71,0,*67
1491523611.62,54933,11.5,72640.3,-11.79,-12.71,-12.71,0,*66
1491523612.92,54934,11.44,72640.8,-11.81,-12.71,-12.71,0,*66
1491523614.21,54935,11.44,72644.8,-11.81,-12.61,-12.65,0,*63
1491523615.5,54936,11.44,72662.3,-11.81,-12.61,-12.61,0,*64
1491523616.79,54937,11.44,72660.8,-11.81,-12.61,-12.61,0,*65
1491523618.08,54938,11.44,72664.3,-11.81,-12.71,-12.65,0,*6F
1491523619.38,54939,11.44,72652.8,-11.81,-12.71,-12.71,0,*6B
1491523620.68,54940,11.44,72656.3,-11.81,-12.79,-12.71,0,*6D
1491523621.98,54941,11.44,72654.3,-11.81,-12.71,-12.71,0,*64
1491523623.27,54942,11.44,72654.8,-11.81,-12.65,-12.65,0,*67
1491523624.56,54943,11.5,72652.0,-11.81,-12.61,-12.65,0,*62
1491523625.83,54944,11.5,72648.0,-11.79,-12.61,-12.61,0,*66
1491523627.12,54945,11.5,72648.3,-11.81,-12.61,-12.61,0,*60
1491523628.41,54946,11.5,72662.8,-11.81,-12.65,-12.65,0,*63
1491523629.67,54947,11.5,72652.5,-11.79,-12.65,-12.65,0,*65
1491523630.96,54948,11.44,72644.8,-11.81,-12.65,-12.65,0,*6D
1491523632.23,54949,11.5,72652.5,-11.79,-12.65,-12.65,0,*6B
1491523633.51,54950,11.5,72662.3,-11.81,-12.61,-12.65,0,*60
1491523634.78,54951,11.5,72658.8,-11.79,-12.61,-12.61,0,*62
1491523636.07,54952,11.44,72656.3,-11.81,-12.61,-12.65,0,*62
1491523637.36,54953,11.44,72658.8,-11.81,-12.61,-12.53,0,*66
1491523638.63,54954,11.44,72662.3,-11.79,-12.53,-12.61,0,*66
1491523639.9,54955,11.44,72664.0,-11.79,-12.53,-12.65,0,*63
1491523641.2,54956,11.44,72672.5,-11.81,-12.53,-12.53,0,*62
1491523642.46,54957,11.44,72668.0,-11.79,-12.61,-12.65,0,*60
1491523643.72,54958,11.44,72668.0,-11.79,-12.61,-12.61,0,*6B
1491523644.99,54959,11.44,72660.5,-11.79,-12.65,-12.65,0,*6A
1491523646.25,54960,11.44,72658.3,-11.79,-12.71,-12.65,0,*65
1491523647.55,54961,11.44,72658.5,-11.81,-12.71,-12.65,0,*63
1491523648.81,54962,11.44,72658.8,-11.79,-12.71,-12.65,0,*67
1491523650.08,54963,11.5,72664.8,-11.79,-12.61,-12.61,0,*63
1491523651.34,54964,11.44,72664.8,-11.79,-12.65,-12.61,0,*60
1491523652.61,54965,11.5,72660.0,-11.79,-12.65,-12.65,0,*65
1491523653.87,54966,11.44,72662.3,-11.79,-12.65,-12.65,0,*66
1491523655.13,54967,11.44,72658.0,-11.79,-12.65,-12.65,0,*67
1491523656.42,54968,11.5,72658.0,-11.81,-12.65,-12.65,0,*6F
1491523657.69,54969,11.44,72668.5,-11.79,-12.65,-12.61,0,*6D
1491523658.96,54970,11.5,72668.5,-11.79,-12.61,-12.61,0,*61
1491523660.22,54971,11.5,72676.8,-11.79,-12.65,-12.65,0,*60
1491523661.51,54972,11.44,72664.0,-11.81,-12.65,-12.65,0,*64
1491523662.77,54973,11.5,72672.3,-11.79,-12.65,-12.65,0,*62
1491523664.04,54974,11.5,72680.3,-11.79,-12.61,-12.61,0,*65
1491523665.3,54975,11.5,72682.5,-11.79,-12.65,-12.61,0,*60
1491523666.57,54976,11.44,72674.0,-11.79,-12.65,-12.65,0,*67
1491523667.83,54977,11.44,72672.5,-11.79,-12.65,-12.65,0,*66
1491523669.1,54978,11.44,72686.5,-11.79,-12.65,-12.65,0,*69
1491523670.36,54979,11.44,72682.0,-11.79,-12.83,-12.83,0,*68
1491523671.61,54980,11.44,72660.0,-11.79,-12.93,-12.71,0,*62
1491523672.88,54981,11.44,72660.8,-11.79,-12.65,-12.65,0,*6F
1491523674.17,54982,11.44,72664.0,-11.81,-12.65,-12.65,0,*6B
1491523675.43,54983,11.44,72662.3,-11.75,-12.65,-12.65,0,*61
1491523676.7,54984,11.44,72660.8,-11.79,-12.71,-12.71,0,*6A
1491523677.97,54985,11.44,72658.8,-11.79,-12.71,-12.65,0,*6E
1491523679.23,54986,11.44,72652.3,-11.79,-12.71,-12.65,0,*6D
1491523680.5,54987,11.5,72652.8,-11.79,-12.65,-12.65,0,*69
1491523681.8,54988,11.44,72640.8,-11.81,-12.79,-12.79,0,*61
1491523683.07,54989,11.44,72640.8,-11.79,-12.71,-12.71,0,*67
1491523684.34,54990,11.44,72644.0,-11.79,-12.71,-12.79,0,*67
1491523685.62,54991,11.44,72656.8,-11.79,-12.71,-12.79,0,*66
1491523686.89,54992,11.44,72660.0,-11.79,-12.71,-12.71,0,*6D
1491523688.16,54993,11.5,72664.0,-11.79,-12.65,-12.71,0,*69
1491523689.44,54994,11.44,72664.0,-11.79,-12.79,-12.79,0,*6B
1491523690.71,54995,11.5,72662.5,-11.79,-12.71,-12.71,0,*6A
1491523691.99,54996,11.5,72660.0,-11.79,-12.71,-12.71,0,*69
1491523693.26,54997,11.44,72658.3,-11.79,-12.79,-12.71,0,*60
1491523694.55,54998,11.5,72660.0,-11.81,-12.71,-12.65,0,*65
1491523695.82,54999,11.44,72662.3,-11.79,-12.71,-12.65,0,*63
1491523697.08,55000,11.5,72668.3,-11.79,-12.71,-12.65,0,*6B
1491523698.35,55001,11.44,72664.3,-11.79,-12.71,-12.65,0,*6A
1491523699.61,55002,11.44,72662.5,-11.79,-12.65,-12.65,0,*6C
1491523700.88,55003,11.44,72664.0,-11.79,-12.65,-12.65,0,*6D
1491523702.15,55004,11.44,72664.0,-11.79,-12.65,-12.71,0,*6F
1491523703.43,55005,11.5,72666.5,-11.79,-12.65,-12.71,0,*6E
1491523704.69,55006,11.5,72666.0,-11.75,-12.65,-12.65,0,*64
1491523705.96,55007,11.5,72668.8,-11.79,-12.71,-12.71,0,*69
1491523707.22,55008,11.44,72678.0,-11.75,-12.65,-12.65,0,*6A